TGW652 WSSS-VTSP

Flight info

Callsign TGW652
Flight time 1h 24m
Altitude 36000
Route AROSO3A AROSO Y513 KALIL Y501 RINBA Y502 DUBAX R325 URGAD URGAD1C
Aircraft A320/M-SDE3FGHIRWY/LB1

Departure

Time 2026-05-05 02:54
Airport Singapore Changi Airport (WSSS)

Arrival

Time 2026-05-05 04:18
Airport Phuket International Airport (VTSP)
Time Latitude Longitude Altitude Speed Heading
2026-05-05 02:28 1.36115 103.99267 25 ft 0 kts 292°
2026-05-05 02:43 1.36109 103.99280 27 ft 4 kts 291°
2026-05-05 02:43 1.36100 103.99306 26 ft 4 kts 286°
2026-05-05 02:43 1.36095 103.99332 26 ft 4 kts 270°
2026-05-05 02:44 1.36100 103.99354 25 ft 4 kts 216°
2026-05-05 02:44 1.36104 103.99357 27 ft 0 kts 202°
2026-05-05 02:47 1.36096 103.99354 25 ft 4 kts 202°
2026-05-05 02:47 1.36076 103.99346 25 ft 8 kts 202°
2026-05-05 02:47 1.36013 103.99337 25 ft 10 kts 148°
2026-05-05 02:47 1.35980 103.99413 25 ft 15 kts 113°
2026-05-05 02:48 1.35933 103.99521 25 ft 19 kts 113°
2026-05-05 02:48 1.35872 103.99563 25 ft 8 kts 206°
2026-05-05 02:48 1.35801 103.99530 28 ft 14 kts 203°
2026-05-05 02:48 1.35703 103.99490 28 ft 17 kts 202°
2026-05-05 02:49 1.35586 103.99440 28 ft 20 kts 203°
2026-05-05 02:49 1.35442 103.99381 30 ft 26 kts 202°
2026-05-05 02:49 1.35259 103.99303 27 ft 30 kts 203°
2026-05-05 02:49 1.35058 103.99218 26 ft 33 kts 203°
2026-05-05 02:50 1.34852 103.99133 26 ft 30 kts 203°
2026-05-05 02:50 1.34655 103.99049 26 ft 32 kts 202°
2026-05-05 02:50 1.34445 103.98961 27 ft 34 kts 203°
2026-05-05 02:50 1.34273 103.98890 27 ft 27 kts 202°
2026-05-05 02:51 1.34095 103.98814 29 ft 29 kts 203°
2026-05-05 02:51 1.33907 103.98736 28 ft 30 kts 202°
2026-05-05 02:51 1.33720 103.98659 26 ft 27 kts 202°
2026-05-05 02:51 1.33543 103.98585 30 ft 28 kts 202°
2026-05-05 02:52 1.33358 103.98508 25 ft 29 kts 203°
2026-05-05 02:52 1.33181 103.98432 28 ft 24 kts 203°
2026-05-05 02:52 1.33072 103.98413 26 ft 12 kts 129°
2026-05-05 02:52 1.33040 103.98487 29 ft 11 kts 114°
2026-05-05 02:53 1.33025 103.98560 29 ft 11 kts 46°
2026-05-05 02:53 1.33120 103.98601 29 ft 31 kts 22°
2026-05-05 02:53 1.33539 103.98777 27 ft 96 kts 23°
2026-05-05 02:53 1.34318 103.99107 30 ft 145 kts 22°
2026-05-05 02:54 1.35360 103.99544 169 ft 170 kts 22°
2026-05-05 02:54 1.36452 103.99995 733 ft 171 kts 22°
2026-05-05 02:54 1.37558 104.00464 1272 ft 174 kts 24°
2026-05-05 02:54 1.38685 104.00945 1806 ft 181 kts 23°
2026-05-05 02:55 1.39901 104.01458 2171 ft 197 kts 22°
2026-05-05 02:55 1.41218 104.02018 2519 ft 215 kts 23°
2026-05-05 02:55 1.42656 104.02640 2794 ft 238 kts 23°
2026-05-05 02:55 1.44262 104.03323 3132 ft 262 kts 23°
2026-05-05 02:56 1.45970 104.04042 3820 ft 269 kts 22°
2026-05-05 02:56 1.47733 104.04623 4610 ft 273 kts 10°
2026-05-05 02:56 1.49657 104.04706 5398 ft 276 kts 353°
2026-05-05 02:56 1.51497 104.04223 6135 ft 280 kts 335°
2026-05-05 02:57 1.53217 104.03300 6870 ft 282 kts 331°
2026-05-05 02:57 1.54954 104.02346 7555 ft 287 kts 331°
2026-05-05 02:57 1.56722 104.01384 8237 ft 291 kts 331°
2026-05-05 02:57 1.58512 104.00416 8948 ft 294 kts 331°
2026-05-05 02:58 1.60323 103.99440 9640 ft 298 kts 331°
2026-05-05 02:58 1.62156 103.98455 10236 ft 303 kts 332°
2026-05-05 02:58 1.64077 103.97421 10403 ft 325 kts 332°
2026-05-05 02:58 1.66127 103.96316 10580 ft 343 kts 332°
2026-05-05 02:59 1.68249 103.95170 11040 ft 349 kts 332°
2026-05-05 02:59 1.70404 103.94009 11591 ft 353 kts 332°
2026-05-05 02:59 1.71838 103.93237 11967 ft 355 kts 332°
2026-05-05 02:59 1.74012 103.92039 12527 ft 359 kts 328°
2026-05-05 03:00 1.75994 103.90501 13071 ft 363 kts 316°
2026-05-05 03:00 1.77646 103.88574 13611 ft 367 kts 308°
2026-05-05 03:00 1.79205 103.86535 14095 ft 371 kts 308°
2026-05-05 03:00 1.80784 103.84485 14576 ft 373 kts 308°
2026-05-05 03:01 1.82378 103.82422 15057 ft 376 kts 308°
2026-05-05 03:01 1.83985 103.80350 15537 ft 379 kts 308°
2026-05-05 03:01 1.85611 103.78255 16013 ft 382 kts 308°
2026-05-05 03:01 1.87248 103.76141 16467 ft 386 kts 308°
2026-05-05 03:02 1.88896 103.74011 16924 ft 389 kts 308°
2026-05-05 03:02 1.90556 103.71862 17383 ft 392 kts 308°
2026-05-05 03:02 1.92206 103.69721 17835 ft 395 kts 308°
2026-05-05 03:02 1.93887 103.67536 18284 ft 398 kts 308°
2026-05-05 03:03 1.95580 103.65335 18683 ft 401 kts 308°
2026-05-05 03:03 1.97288 103.63112 19096 ft 403 kts 308°
2026-05-05 03:03 1.99004 103.60878 19515 ft 406 kts 308°
2026-05-05 03:03 2.00729 103.58632 19942 ft 408 kts 308°
2026-05-05 03:04 2.02467 103.56374 20369 ft 411 kts 308°
2026-05-05 03:04 2.04215 103.54102 20790 ft 414 kts 308°
2026-05-05 03:04 2.05976 103.51814 21214 ft 416 kts 309°
2026-05-05 03:04 2.07745 103.49514 21642 ft 419 kts 309°
2026-05-05 03:05 2.09528 103.47197 22065 ft 421 kts 309°
2026-05-05 03:05 2.11322 103.44866 22465 ft 424 kts 309°
2026-05-05 03:05 2.13108 103.42513 22860 ft 427 kts 306°
2026-05-05 03:05 2.14600 103.39938 23237 ft 430 kts 295°
2026-05-05 03:06 2.15636 103.37136 23580 ft 434 kts 287°
2026-05-05 03:06 2.16470 103.34269 23882 ft 436 kts 287°
2026-05-05 03:06 2.17320 103.31354 24191 ft 438 kts 287°
2026-05-05 03:06 2.18177 103.28425 24491 ft 440 kts 287°
2026-05-05 03:07 2.19038 103.25482 24796 ft 442 kts 287°
2026-05-05 03:07 2.19902 103.22528 25093 ft 444 kts 287°
2026-05-05 03:07 2.20770 103.19561 25379 ft 446 kts 287°
2026-05-05 03:07 2.21643 103.16575 25676 ft 448 kts 287°
2026-05-05 03:08 2.22517 103.13584 25960 ft 449 kts 287°
2026-05-05 03:08 2.23399 103.10577 26249 ft 451 kts 287°
2026-05-05 03:08 2.24281 103.07565 26544 ft 452 kts 287°
2026-05-05 03:08 2.25167 103.04537 26819 ft 454 kts 287°
2026-05-05 03:09 2.26055 103.01505 27088 ft 456 kts 287°
2026-05-05 03:09 2.26947 102.98454 27353 ft 458 kts 287°
2026-05-05 03:09 2.27843 102.95389 27616 ft 459 kts 287°
2026-05-05 03:09 2.28741 102.92322 27875 ft 461 kts 287°
2026-05-05 03:10 2.29645 102.89238 28127 ft 463 kts 287°
2026-05-05 03:10 2.30553 102.86145 28390 ft 465 kts 287°
2026-05-05 03:10 2.31467 102.83041 28653 ft 466 kts 287°
2026-05-05 03:10 2.32383 102.79930 28916 ft 468 kts 287°
2026-05-05 03:11 2.33304 102.76798 29178 ft 470 kts 286°
2026-05-05 03:11 2.34223 102.73658 29450 ft 472 kts 286°
2026-05-05 03:11 2.35142 102.70504 29712 ft 473 kts 286°
2026-05-05 03:11 2.36048 102.67382 30049 ft 473 kts 286°
2026-05-05 03:12 2.36975 102.64192 30386 ft 471 kts 286°
2026-05-05 03:12 2.37891 102.61049 30723 ft 470 kts 286°
2026-05-05 03:12 2.38794 102.57955 31049 ft 469 kts 286°
2026-05-05 03:12 2.39709 102.54827 31395 ft 467 kts 286°
2026-05-05 03:13 2.40620 102.51710 31751 ft 466 kts 286°
2026-05-05 03:13 2.41528 102.48599 32110 ft 464 kts 286°
2026-05-05 03:13 2.42430 102.45505 32476 ft 463 kts 286°
2026-05-05 03:13 2.43332 102.42413 32847 ft 462 kts 286°
2026-05-05 03:14 2.44230 102.39336 33222 ft 460 kts 287°
2026-05-05 03:14 2.45288 102.36327 33577 ft 458 kts 295°
2026-05-05 03:14 2.46817 102.33554 33921 ft 455 kts 305°
2026-05-05 03:14 2.48790 102.31097 34206 ft 453 kts 315°
2026-05-05 03:15 2.51137 102.29018 34479 ft 450 kts 323°
2026-05-05 03:15 2.53614 102.27094 34743 ft 450 kts 323°
2026-05-05 03:15 2.56078 102.25172 35019 ft 449 kts 323°
2026-05-05 03:15 2.58535 102.23243 35279 ft 448 kts 322°
2026-05-05 03:16 2.60984 102.21316 35548 ft 447 kts 322°
2026-05-05 03:16 2.63422 102.19397 35812 ft 446 kts 322°
2026-05-05 03:16 2.65869 102.17472 35890 ft 447 kts 322°
2026-05-05 03:17 2.70799 102.13598 35903 ft 452 kts 322°
2026-05-05 03:17 2.75723 102.09742 35901 ft 453 kts 322°
2026-05-05 03:18 2.80678 102.05862 35897 ft 453 kts 322°
2026-05-05 03:18 2.85633 102.01970 35898 ft 453 kts 322°
2026-05-05 03:19 2.93067 101.96134 35899 ft 453 kts 322°
2026-05-05 03:19 2.98024 101.92239 35900 ft 453 kts 322°
2026-05-05 03:20 3.02978 101.88338 35923 ft 453 kts 323°
2026-05-05 03:20 3.07949 101.84436 35929 ft 453 kts 323°
2026-05-05 03:21 3.12905 101.80547 35931 ft 453 kts 323°
2026-05-05 03:21 3.17862 101.76656 35938 ft 453 kts 322°
2026-05-05 03:22 3.22815 101.72761 35938 ft 453 kts 323°
2026-05-05 03:22 3.27768 101.68868 35936 ft 453 kts 322°
2026-05-05 03:23 3.32779 101.65056 35936 ft 451 kts 329°
2026-05-05 03:23 3.38413 101.62333 35941 ft 449 kts 337°
2026-05-05 03:24 3.44126 101.59801 35945 ft 449 kts 336°
2026-05-05 03:24 3.49833 101.57254 35943 ft 448 kts 336°
2026-05-05 03:25 3.55489 101.54730 35943 ft 448 kts 336°
2026-05-05 03:25 3.61183 101.52195 35944 ft 448 kts 336°
2026-05-05 03:26 3.66881 101.49666 35946 ft 448 kts 337°
2026-05-05 03:26 3.72585 101.47135 35945 ft 448 kts 336°
2026-05-05 03:27 3.78284 101.44599 35944 ft 448 kts 336°
2026-05-05 03:27 3.83977 101.42060 35945 ft 448 kts 336°
2026-05-05 03:28 3.89676 101.39525 35944 ft 448 kts 336°
2026-05-05 03:28 3.95376 101.37001 35944 ft 448 kts 336°
2026-05-05 03:29 4.01037 101.34480 35948 ft 448 kts 336°
2026-05-05 03:29 4.06760 101.31925 35948 ft 447 kts 336°
2026-05-05 03:30 4.12415 101.29413 35942 ft 447 kts 336°
2026-05-05 03:30 4.18102 101.26883 35946 ft 447 kts 336°
2026-05-05 03:31 4.23789 101.24355 35952 ft 447 kts 337°
2026-05-05 03:31 4.29475 101.21826 35947 ft 447 kts 336°
2026-05-05 03:32 4.35158 101.19291 35946 ft 447 kts 336°
2026-05-05 03:32 4.40846 101.16753 35946 ft 447 kts 336°
2026-05-05 03:33 4.46537 101.14220 35941 ft 447 kts 336°
2026-05-05 03:33 4.52228 101.11687 35938 ft 447 kts 336°
2026-05-05 03:34 4.57912 101.09152 35937 ft 447 kts 336°
2026-05-05 03:34 4.63613 101.06665 35936 ft 447 kts 337°
2026-05-05 03:35 4.69336 101.04222 35942 ft 447 kts 337°
2026-05-05 03:35 4.75056 101.01775 35950 ft 447 kts 337°
2026-05-05 03:36 4.80764 100.99314 35948 ft 446 kts 337°
2026-05-05 03:36 4.86468 100.96855 35953 ft 446 kts 337°
2026-05-05 03:37 4.92146 100.94403 35950 ft 447 kts 337°
2026-05-05 03:37 4.97868 100.91938 35954 ft 448 kts 337°
2026-05-05 03:38 5.03590 100.89468 35952 ft 448 kts 337°
2026-05-05 03:38 5.09318 100.86990 35955 ft 448 kts 337°
2026-05-05 03:39 5.15041 100.84511 35952 ft 448 kts 337°
2026-05-05 03:39 5.20774 100.82038 35951 ft 448 kts 337°
2026-05-05 03:40 5.26504 100.79559 35945 ft 449 kts 338°
2026-05-05 03:40 5.32246 100.77073 35935 ft 450 kts 338°
2026-05-05 03:41 5.37917 100.74509 35933 ft 451 kts 332°
2026-05-05 03:41 5.43395 100.71415 35919 ft 452 kts 332°
2026-05-05 03:42 5.48883 100.68320 35922 ft 453 kts 332°
2026-05-05 03:42 5.54379 100.65212 35920 ft 453 kts 332°
2026-05-05 03:43 5.59869 100.62101 35929 ft 453 kts 332°
2026-05-05 03:43 5.65352 100.58992 35931 ft 452 kts 332°
2026-05-05 03:44 5.70831 100.55893 35937 ft 451 kts 332°
2026-05-05 03:44 5.76303 100.52803 35936 ft 451 kts 332°
2026-05-05 03:45 5.81748 100.49686 35938 ft 451 kts 330°
2026-05-05 03:45 5.86221 100.46994 35940 ft 451 kts 329°
2026-05-05 03:46 5.92455 100.43191 35941 ft 451 kts 330°
2026-05-05 03:46 5.97832 100.39953 35938 ft 450 kts 330°
2026-05-05 03:47 6.02305 100.37272 35939 ft 450 kts 330°
2026-05-05 03:47 6.07672 100.34050 35942 ft 449 kts 330°
2026-05-05 03:48 6.13044 100.30827 35937 ft 449 kts 330°
2026-05-05 03:48 6.18396 100.27612 35930 ft 448 kts 330°
2026-05-05 03:49 6.23756 100.24391 35927 ft 448 kts 330°
2026-05-05 03:49 6.29112 100.21172 35926 ft 449 kts 330°
2026-05-05 03:50 6.34472 100.17949 35927 ft 448 kts 329°
2026-05-05 03:50 6.39821 100.14736 35929 ft 448 kts 329°
2026-05-05 03:51 6.44782 100.10971 35926 ft 449 kts 314°
2026-05-05 03:51 6.48980 100.06329 35924 ft 449 kts 313°
2026-05-05 03:52 6.53178 100.01691 35924 ft 448 kts 313°
2026-05-05 03:52 6.57383 99.97053 35923 ft 448 kts 313°
2026-05-05 03:53 6.61588 99.92420 35926 ft 448 kts 313°
2026-05-05 03:53 6.65766 99.87810 35925 ft 448 kts 313°
2026-05-05 03:54 6.69969 99.83165 35791 ft 448 kts 313°
2026-05-05 03:54 6.72066 99.80844 35551 ft 449 kts 313°
2026-05-05 03:54 6.74167 99.78519 35169 ft 449 kts 313°
2026-05-05 03:55 6.76268 99.76195 34673 ft 448 kts 313°
2026-05-05 03:55 6.78361 99.73879 34186 ft 446 kts 313°
2026-05-05 03:55 6.80446 99.71574 33686 ft 445 kts 313°
2026-05-05 03:55 6.82522 99.69282 33167 ft 442 kts 313°
2026-05-05 03:56 6.84585 99.67002 32678 ft 439 kts 313°
2026-05-05 03:56 6.86638 99.64731 32167 ft 437 kts 313°
2026-05-05 03:56 6.88658 99.62499 31683 ft 435 kts 313°
2026-05-05 03:56 6.90691 99.60249 31193 ft 433 kts 313°
2026-05-05 03:57 6.92712 99.58008 30708 ft 432 kts 313°
2026-05-05 03:57 6.94724 99.55776 30220 ft 430 kts 313°
2026-05-05 03:57 6.96734 99.53551 29709 ft 429 kts 313°
2026-05-05 03:57 6.98738 99.51332 29234 ft 426 kts 313°
2026-05-05 03:58 7.00723 99.49136 28767 ft 423 kts 314°
2026-05-05 03:58 7.02717 99.46971 28316 ft 420 kts 314°
2026-05-05 03:58 7.04717 99.44840 27866 ft 418 kts 314°
2026-05-05 03:58 7.06719 99.42726 27433 ft 415 kts 314°
2026-05-05 03:59 7.08709 99.40627 27004 ft 413 kts 314°
2026-05-05 03:59 7.10683 99.38534 26583 ft 412 kts 314°
2026-05-05 03:59 7.12650 99.36441 26165 ft 410 kts 314°
2026-05-05 03:59 7.14586 99.34382 25741 ft 409 kts 314°
2026-05-05 04:00 7.16566 99.32273 25306 ft 410 kts 314°
2026-05-05 04:00 7.18499 99.30211 24874 ft 409 kts 314°
2026-05-05 04:00 7.20453 99.28123 24416 ft 410 kts 314°
2026-05-05 04:00 7.22405 99.26041 23959 ft 411 kts 314°
2026-05-05 04:01 7.24371 99.23944 23483 ft 412 kts 314°
2026-05-05 04:01 7.26341 99.21839 22962 ft 412 kts 314°
2026-05-05 04:01 7.28298 99.19750 22495 ft 410 kts 314°
2026-05-05 04:01 7.30246 99.17672 22139 ft 405 kts 314°
2026-05-05 04:02 7.32184 99.15603 21640 ft 404 kts 314°
2026-05-05 04:02 7.34098 99.13559 21278 ft 399 kts 314°
2026-05-05 04:02 7.36001 99.11528 20826 ft 397 kts 314°
2026-05-05 04:02 7.37879 99.09524 20358 ft 392 kts 314°
2026-05-05 04:03 7.39740 99.07538 19597 ft 387 kts 314°
2026-05-05 04:03 7.41563 99.05593 19118 ft 374 kts 314°
2026-05-05 04:03 7.43317 99.03713 18675 ft 362 kts 314°
2026-05-05 04:03 7.45013 99.01894 18241 ft 352 kts 315°
2026-05-05 04:04 7.46677 99.00116 17774 ft 353 kts 315°
2026-05-05 04:04 7.48362 98.98322 17341 ft 352 kts 315°
2026-05-05 04:04 7.50038 98.96532 16913 ft 351 kts 315°
2026-05-05 04:04 7.51710 98.94741 16470 ft 350 kts 315°
2026-05-05 04:05 7.53378 98.92955 16055 ft 350 kts 315°
2026-05-05 04:05 7.55044 98.91169 15628 ft 349 kts 315°
2026-05-05 04:05 7.56707 98.89388 15196 ft 349 kts 315°
2026-05-05 04:05 7.58369 98.87610 14775 ft 348 kts 315°
2026-05-05 04:06 7.60032 98.85835 14347 ft 348 kts 315°
2026-05-05 04:06 7.61698 98.84057 13916 ft 348 kts 315°
2026-05-05 04:06 7.63360 98.82279 13467 ft 348 kts 315°
2026-05-05 04:06 7.65015 98.80504 13038 ft 346 kts 315°
2026-05-05 04:07 7.66658 98.78742 12614 ft 344 kts 315°
2026-05-05 04:07 7.68295 98.76989 12194 ft 342 kts 315°
2026-05-05 04:07 7.69903 98.75269 11787 ft 341 kts 315°
2026-05-05 04:07 7.71527 98.73534 11369 ft 340 kts 315°
2026-05-05 04:08 7.73123 98.71818 11196 ft 330 kts 315°
2026-05-05 04:08 7.74667 98.70148 11051 ft 321 kts 315°
2026-05-05 04:08 7.76114 98.68456 10770 ft 318 kts 306°
2026-05-05 04:08 7.77125 98.66503 10408 ft 316 kts 290°
2026-05-05 04:09 7.77629 98.64357 9810 ft 314 kts 279°
2026-05-05 04:09 7.77975 98.62200 9582 ft 311 kts 280°
2026-05-05 04:09 7.78320 98.60057 9428 ft 310 kts 280°
2026-05-05 04:09 7.78671 98.57908 9257 ft 309 kts 280°
2026-05-05 04:10 7.79021 98.55776 9089 ft 308 kts 280°
2026-05-05 04:10 7.79375 98.53641 8924 ft 307 kts 280°
2026-05-05 04:10 7.79729 98.51518 8762 ft 307 kts 280°
2026-05-05 04:10 7.80082 98.49394 8598 ft 306 kts 280°
2026-05-05 04:11 7.80600 98.47325 8432 ft 304 kts 292°
2026-05-05 04:11 7.81531 98.45417 8274 ft 303 kts 299°
2026-05-05 04:11 7.82515 98.43542 8116 ft 302 kts 299°
2026-05-05 04:11 7.83490 98.41671 7951 ft 302 kts 298°
2026-05-05 04:12 7.84464 98.39792 7791 ft 301 kts 298°
2026-05-05 04:12 7.85433 98.37922 7638 ft 300 kts 298°
2026-05-05 04:12 7.86401 98.36056 7468 ft 300 kts 299°
2026-05-05 04:12 7.87613 98.34368 7345 ft 296 kts 319°
2026-05-05 04:13 7.89241 98.33116 7042 ft 294 kts 327°
2026-05-05 04:13 7.90913 98.31950 6847 ft 289 kts 327°
2026-05-05 04:13 7.92563 98.30816 6546 ft 289 kts 327°
2026-05-05 04:13 7.94213 98.29690 6176 ft 290 kts 327°
2026-05-05 04:14 7.95908 98.28532 5781 ft 292 kts 327°
2026-05-05 04:14 7.97567 98.27394 5387 ft 283 kts 327°
2026-05-05 04:14 7.99016 98.26112 4988 ft 271 kts 311°
2026-05-05 04:14 8.00185 98.24704 4497 ft 258 kts 310°
2026-05-05 04:15 8.01375 98.23359 4082 ft 251 kts 321°
2026-05-05 04:15 8.02907 98.22680 3639 ft 235 kts 359°
2026-05-05 04:15 8.04410 98.22983 3206 ft 216 kts 24°
2026-05-05 04:15 8.05770 98.23499 2848 ft 203 kts 21°
2026-05-05 04:16 8.07044 98.23930 2464 ft 188 kts 20°
2026-05-05 04:16 8.08295 98.24342 1699 ft 190 kts 19°
2026-05-05 04:16 8.09528 98.24761 1127 ft 178 kts 28°
2026-05-05 04:16 8.10403 98.25483 985 ft 152 kts 57°
2026-05-05 04:17 8.10776 98.26438 750 ft 143 kts 83°
2026-05-05 04:17 8.10865 98.27422 601 ft 140 kts 86°
2026-05-05 04:17 8.11013 98.28384 451 ft 138 kts 82°
2026-05-05 04:17 8.11106 98.29357 262 ft 138 kts 88°
2026-05-05 04:18 8.11192 98.30308 84 ft 138 kts 85°
2026-05-05 04:18 8.11274 98.31156 30 ft 102 kts 84°
2026-05-05 04:18 8.11319 98.31659 43 ft 55 kts 84°
2026-05-05 04:18 8.11349 98.31976 51 ft 38 kts 85°
2026-05-05 04:19 8.11371 98.32222 69 ft 33 kts 85°
2026-05-05 04:19 8.11330 98.32403 70 ft 18 kts 114°
2026-05-05 04:19 8.11251 98.32401 72 ft 16 kts 261°
2026-05-05 04:19 8.11240 98.32270 71 ft 21 kts 266°
2026-05-05 04:20 8.11225 98.32102 63 ft 27 kts 263°
2026-05-05 04:20 8.11206 98.31903 52 ft 27 kts 266°
2026-05-05 04:20 8.11190 98.31708 46 ft 26 kts 263°
2026-05-05 04:20 8.11169 98.31508 38 ft 31 kts 265°
2026-05-05 04:21 8.11148 98.31278 32 ft 34 kts 264°
2026-05-05 04:21 8.11128 98.31071 30 ft 21 kts 264°
2026-05-05 04:21 8.11089 98.30926 29 ft 22 kts 257°
2026-05-05 04:21 8.11073 98.30761 28 ft 25 kts 263°
2026-05-05 04:22 8.11056 98.30603 28 ft 20 kts 264°
2026-05-05 04:22 8.11041 98.30457 27 ft 19 kts 256°
2026-05-05 04:22 8.10931 98.30388 27 ft 20 kts 197°
2026-05-05 04:22 8.10788 98.30350 27 ft 23 kts 194°
2026-05-05 04:23 8.10627 98.30308 26 ft 23 kts 195°
2026-05-05 04:23 8.10501 98.30275 26 ft 14 kts 194°
2026-05-05 04:23 8.10435 98.30322 26 ft 14 kts 114°
2026-05-05 04:23 8.10404 98.30405 27 ft 7 kts 105°
2026-05-05 04:24 8.10400 98.30421 27 ft 0 kts 105°